Valparaiso, FL (32580)

6:07 PM CDT on May 24, 2017 (GMT -0500)
Pear Tree Observatory | | Change Station
Active Advisory: Coastal Hazard Statement Active Notice: Coastal Hazard Statement

Elev 80 ft 30.51 °N, 86.50 °W | Updated 10 seconds ago

Mostly Cloudy
Mostly Cloudy
77.1 °F
Feels Like 79 °F
N
1.0
Wind Variable Wind from WNW
Gusts 7.0 mph

Today
High -- | Low -- °F
--% Chance of Precip.
Yesterday
High -- | Low -- °F
Precip. -- in
Pressure 29.61 in
Visibility 10.0 miles
Clouds Few 6000 ft
Mostly Cloudy 20000 ft
Heat Index 79 °F
Dew Point 55 °F
Humidity 47%
Rainfall 0.00 in
Snow Depth Not available.
5:46 AM 7:39 PM
Waning Crescent, 1% visible
METAR KVPS 242255Z 28019G25KT 10SM FEW060 BKN200 26/10 A2959 RMK AO2A SLP026 T02580095 $
Pressure 29.61 in
Visibility 10.0 miles
Clouds Few 6000 ft
Mostly Cloudy 20000 ft
Heat Index 79 °F
Dew Point 55 °F
Humidity 47%
Rainfall 0.00 in
Snow Depth Not available.
5:46 AM 7:39 PM
Waning Crescent, 1% visible
METAR KVPS 242255Z 28019G25KT 10SM FEW060 BKN200 26/10 A2959 RMK AO2A SLP026 T02580095 $

Get Your Daily Forecast Email!

Thanks for signing up!

Be on the lookout for a verification email in your inbox.

You'll start receiving severe weather alerts in your inbox..

×

10-Day Weather Forecast

Almanac

Astronomy

May. 24, 2017 Rise Set
Actual Time
Civil Twilight
Nautical Twilight
Astronomical Twilight
Moon
Length of Visible Light
Length of Day
Tomorrow will be .
, % of the Moon is Illuminated

Today's Extremes

State Highs State Lows

Community

WunderPhotos

Category 6

Welcome to Category 6. This is the collective home for Weather Underground's featured writeups by Dr. Jeff Masters (right), Bob Henson (left), Chris Burt, and other regular contributors.

Nearby

Air Quality

  Air Quality AQ Index Pollutant
Not available.

Snow Depth

Station Depth Elevation

Earthquake Activity

City Distance Mag. Time & Date
Minimum magnitude displayed is 2.5.

Coastal Water Temperatures

Place Temperature

Stations

Nearby Weather Stations

Station Location Temp. Windchill Dew Point Humidity Wind Precip. Elev Updated Type
                   

Watches & Warnings

Coastal Hazard Statement
Issued: 12:17 PM CDT May. 24, 2017 – National Weather Service

... High rip current risk remains in effect until 7 PM CDT this
evening...

* surf... 2 to 5 feet.

* Timing... through early this evening.

* Impacts... frequent life-threatening rip currents are expected.
The surf is dangerous for all levels of swimmers.

Precautionary/preparedness actions...

There is a high risk of rip currents. Rip currents are life-
threatening to anyone entering the surf. Swim near a lifeguard.
If caught in a rip current remain calm. Don't fight the current.
Swim in a direction following the shoreline. If unable to escape,
face the shore and call or wave for help. If tired, float or
tread water until out of the rip current.